Regional Weather Roundup
Issued by NWS

Home | Current Version | Previous Version | Graphics & Text | Print | Product List | Glossary On
Versions: 1 2 3 4 5 6 7 8 9 10 11 12 13 14 15 16 17 18 19 20 21 22 23 24 25 26 27 28 29 30 31 32 33 34 35 36 37 38 39 40 41 42 43 44 45 46 47 48 49 50
000
ASUS45 KBOI 272310
RWRID
WEATHER ROUNDUP FOR IDAHO
NATIONAL WEATHER SERVICE BOISE ID
500 PM MDT MON APR 27 2015

NOTE: "FAIR" INDICATES FEW OR NO CLOUDS BELOW 12000 FEET
WITH NO SIGNIFICANT WEATHER AND/OR OBSTRUCTIONS TO VISIBILITY

IDZ012-014-280000-
SOUTHWEST IDAHO


CITY           SKY/WX    TMP DP  RH WIND       PRES   REMARKS
BOISE          SUNNY     68  27  21 W10G18    30.21F
CALDWELL       SUNNY     66  27  22 E7        30.22F
MOUNTAIN HOME  SUNNY     66  27  22 VRB2      30.21F
$$

IDZ016-017-280000-
SOUTHCENTRAL IDAHO


CITY           SKY/WX    TMP DP  RH WIND       PRES   REMARKS
BURLEY         SUNNY     60  25  26 E5        30.22F
JEROME         SUNNY     61  22  22 VRB6      30.24F
TWIN FALLS     SUNNY     65  25  22 N8        30.23F
$$

IDZ019>023-280000-
SOUTHEAST IDAHO


CITY           SKY/WX    TMP DP  RH WIND       PRES   REMARKS
IDAHO FALLS    SUNNY     60  24  25 VRB5      30.25F
POCATELLO      SUNNY     62  21  20 N9        30.24F
REXBURG        SUNNY     58  22  24 N7        30.25F
$$

IDZ006-010-011-018-031-032-280000-
CENTRAL IDAHO MOUNTAINS


CITY           SKY/WX    TMP DP  RH WIND       PRES   REMARKS
MCCALL         SUNNY     62  20  19 VRB3      30.22F
HAILEY         MOSUNNY   59  32  36 SE12      30.25F
STANLEY          N/A     62  16  16 VRB6      30.26F
SALMON         SUNNY     61  28  29 NE7       30.24F
CHALLIS        SUNNY     59  24  26 VRB5      30.24F
$$

IDZ002-004-006-007-026-280000-
NORTHERN IDAHO


CITY           SKY/WX    TMP DP  RH WIND       PRES   REMARKS
LEWISTON       SUNNY     70  35  27 CALM      30.21F
LOWELL           N/A     72  35  25 S3        30.21F
COEUR D`ALENE  SUNNY     64  32  29 W5        30.26F
MULLAN PASS    MOSUNNY   52  23  32 CALM      30.30F
$$



USA.gov is the U.S. government's official web portal to all federal, state and local government web resources and services.